GEFSMW_500_meanwind_246.txt.gz
Wind_Speed
42 42 41 42 42 43 43 43 43 43 43 43 43 44 45 44 45 45 45 44 43 43 43 43 43 42 41 41 40 40 39 38 38 37 37 38 38 37 37 36 36 35 35
42 42 42 42 43 44 44 44 44 44 44 44 45 45 45 46 46 46 46 47 46 45 45 45 45 44 43 43 42 42 41 40 40 40 39 39 39 39 38 38 37 37 37
42 43 43 43 43 43 44 45 45 46 46 47 47 48 48 47 48 48 48 47 48 48 46 46 46 46 45 45 44 43 43 43 42 42 41 41 40 40 40 39 39 38 38
42 43 43 44 44 44 44 44 45 46 47 48 49 49 49 49 49 50 50 50 50 50 49 48 47 47 48 47 46 45 45 44 43 43 43 42 42 40 40 40 40 40 40
42 43 43 44 44 44 44 45 46 47 48 48 49 50 50 50 50 51 51 52 52 52 52 51 50 49 49 48 48 47 47 45 44 44 44 43 42 41 41 41 41 41 41
42 43 44 44 45 45 45 46 46 46 47 48 49 50 50 51 51 52 52 53 53 53 53 54 53 53 51 50 49 49 49 47 46 46 45 45 44 43 42 42 42 42 41
43 43 43 43 44 45 45 45 45 45 46 47 49 50 51 52 52 53 53 53 54 54 54 55 55 55 54 53 53 50 49 49 48 47 47 46 46 45 44 43 43 43 43
43 43 43 43 43 43 45 44 44 45 45 46 48 49 51 52 53 54 54 54 55 55 55 55 56 55 55 55 54 53 52 51 50 50 48 47 46 46 46 45 45 44 44
42 43 43 43 43 43 44 44 44 44 44 45 45 47 49 50 51 53 54 54 55 55 55 55 55 55 54 54 53 53 53 52 52 51 50 49 48 48 47 47 46 45 45
41 42 43 44 44 44 43 43 44 44 44 45 45 46 47 48 49 51 53 54 54 54 55 55 55 55 54 54 53 53 53 52 52 51 50 49 49 49 48 48 47 47 46
41 41 42 43 44 43 43 43 43 44 44 44 44 45 44 45 46 47 49 50 51 52 53 53 54 53 53 53 53 52 52 53 52 52 52 51 50 50 50 49 48 48 47
40 40 41 41 42 42 42 43 43 42 42 42 43 43 43 43 44 45 46 47 49 50 51 51 52 53 54 53 53 53 52 53 53 53 53 52 51 50 50 49 49 49 48
38 38 38 39 39 40 40 40 40 40 39 39 39 40 41 41 41 43 44 44 45 47 49 50 51 51 52 53 54 53 53 53 53 53 53 53 52 51 50 50 50 50 49
37 37 36 37 37 38 38 38 37 37 37 37 37 37 38 39 39 40 41 42 42 44 45 47 48 49 50 51 52 54 54 54 53 53 53 53 53 52 51 50 50 49 49
35 35 35 35 35 36 36 37 37 37 37 36 36 36 37 38 38 38 39 40 40 42 43 44 45 46 47 48 50 52 53 54 54 53 53 53 53 53 51 50 50 50 50
32 32 32 33 33 33 34 34 35 36 36 35 35 35 36 36 37 38 38 38 38 39 40 42 43 44 46 46 47 48 49 50 52 52 52 52 52 51 52 51 50 49 48
31 31 31 30 30 31 32 32 33 33 34 35 34 34 34 34 35 36 37 37 37 38 38 39 41 42 44 45 45 45 46 47 49 50 50 49 49 49 49 49 49 48 48
30 30 31 31 30 29 29 30 30 31 32 32 32 32 32 32 33 34 35 36 37 37 37 37 38 40 41 42 42 43 43 44 44 45 47 47 46 46 46 46 47 48 48
30 30 31 30 29 29 28 29 29 29 30 30 31 31 31 31 31 32 33 34 35 36 36 36 37 38 39 40 41 40 40 41 41 43 44 45 45 45 45 45 46 46 47
30 29 30 29 29 29 29 28 28 29 29 30 30 30 30 30 30 30 31 32 33 34 34 35 35 37 38 39 40 40 40 41 41 42 42 43 43 43 44 44 44 44 45
31 30 29 29 29 30 30 30 30 29 29 29 30 30 30 29 29 29 29 30 31 32 33 34 34 35 36 37 38 39 39 39 40 40 41 41 42 42 43 43 43 43 43
32 32 31 30 30 30 30 30 29 30 30 29 29 29 29 29 29 28 28 28 29 30 31 32 32 33 34 35 36 37 37 37 38 38 39 39 40 41 41 41 42 41 41
32 32 32 31 31 30 29 28 28 28 28 28 28 29 29 28 28 28 27 28 28 29 30 30 30 31 31 32 33 34 35 36 36 37 37 37 38 39 39 40 40 40 40
32 32 32 31 30 29 28 27 27 27 27 28 28 27 27 27 27 27 27 27 28 28 29 29 30 30 31 32 32 32 33 34 35 37 37 37 37 38 38 38 38 39 39
31 31 31 31 30 30 29 28 28 27 27 27 27 28 28 27 27 27 26 27 27 27 28 28 29 30 30 30 31 31 32 33 34 35 36 36 36 36 37 38 38 38 39
30 29 29 29 29 29 29 29 29 28 27 27 27 28 28 28 27 27 27 27 27 27 28 28 29 30 30 30 31 32 32 32 33 34 34 35 35 36 36 37 38 38 39

GEFSMW_500_meanwind_252.txt.gz
Wind_Speed
39 40 41 41 42 42 42 42 42 43 45 45 45 45 46 46 47 47 47 47 47 47 48 48 48 48 48 47 47 46 45 45 44 44 43 42 42 42 41 40 40 39 38
40 41 41 42 42 42 42 43 43 43 44 45 45 46 46 48 49 49 49 49 49 48 49 49 50 50 50 49 49 48 47 47 46 46 46 45 45 44 43 42 42 41 40
40 41 42 43 43 43 43 44 44 44 44 44 45 47 47 48 49 50 51 51 51 51 51 52 52 52 52 51 51 51 50 49 48 48 47 47 47 46 45 44 43 43 43
41 41 42 43 44 44 44 44 44 44 44 45 45 46 47 48 49 51 52 52 53 54 54 54 53 53 54 53 53 53 52 52 51 50 50 49 48 47 47 46 45 44 44
40 41 42 43 44 44 45 44 44 44 45 45 45 45 46 47 49 51 52 53 54 55 55 56 56 56 55 55 55 55 54 53 53 53 52 51 50 49 48 47 47 46 45
41 41 42 43 43 44 45 45 45 45 45 46 46 46 46 47 48 50 52 54 55 56 56 57 57 57 57 57 56 57 56 54 54 54 53 52 52 51 50 49 48 47 46
41 42 42 42 42 43 44 45 46 46 46 46 47 47 47 48 49 50 52 53 55 57 57 58 58 58 58 58 58 57 57 56 55 55 55 54 53 52 52 51 49 48 47
41 41 42 42 43 43 44 44 45 45 45 46 46 47 48 48 49 50 51 53 55 56 57 58 58 58 59 59 59 59 58 58 57 57 56 55 55 53 53 53 51 49 48
40 41 41 42 43 43 43 44 44 44 45 45 46 46 46 47 48 49 50 52 53 55 56 57 58 58 58 58 58 59 59 59 58 58 58 57 57 56 55 53 52 51 50
40 40 41 41 42 42 43 44 44 44 44 44 44 45 46 46 46 47 48 49 51 53 54 56 57 57 58 58 58 58 58 58 58 59 59 58 57 56 56 55 54 53 52
39 40 40 41 41 42 43 44 44 43 43 44 44 44 44 45 46 47 46 47 47 49 52 53 55 56 57 57 57 57 58 58 58 58 59 58 58 57 56 55 54 53 53
38 39 39 40 41 41 41 42 43 43 43 44 43 43 43 43 44 44 44 45 45 46 48 50 52 53 55 55 56 56 57 57 58 58 58 58 58 58 57 56 55 54 53
37 38 39 39 40 40 41 41 42 42 43 43 43 43 43 43 43 43 43 43 44 44 46 47 49 51 52 53 54 55 55 56 56 57 57 57 58 58 58 57 57 56 54
37 38 38 39 39 39 40 40 41 42 42 43 42 42 42 42 42 43 42 42 42 42 43 44 46 47 49 50 51 52 53 54 55 55 56 56 56 57 57 57 57 56 56
38 37 37 38 38 38 38 39 39 41 41 41 41 41 40 41 41 42 41 40 40 40 41 42 42 44 45 46 47 49 51 52 53 54 54 55 55 56 56 56 56 57 57
37 37 36 36 37 36 36 37 38 38 39 39 40 40 40 39 39 40 39 39 38 39 39 40 41 41 43 44 44 45 48 50 51 51 52 52 53 55 56 56 56 56 56
36 35 35 35 35 35 34 34 34 35 36 36 37 37 38 38 38 38 38 37 37 37 37 38 39 40 41 42 43 43 44 46 48 49 50 50 50 52 54 54 55 55 55
34 34 33 32 33 33 33 33 33 33 33 34 35 35 35 35 36 36 37 37 37 37 36 36 37 37 38 39 40 41 42 43 44 46 48 49 49 48 49 49 50 51 52
33 33 32 31 31 32 32 32 32 31 31 31 32 33 33 34 34 34 35 35 36 35 35 35 35 36 36 37 38 38 39 40 42 44 45 46 47 47 47 47 47 48 49
33 32 31 31 30 30 30 31 31 31 31 30 31 32 32 32 32 33 33 34 34 34 34 34 34 35 35 35 36 36 36 37 39 41 43 44 45 46 47 47 48 48 48
32 32 31 31 31 30 30 30 30 30 30 31 30 30 31 31 31 31 32 32 32 32 33 33 33 33 33 34 34 35 35 36 37 39 40 42 43 44 46 47 46 46 46
31 31 31 31 31 31 30 29 29 29 30 30 30 30 30 30 30 30 31 30 30 30 31 33 33 33 33 33 33 34 34 34 35 36 38 40 42 42 43 43 43 44 44
31 30 30 30 31 30 30 29 28 28 28 28 28 28 29 29 29 29 29 29 30 29 30 31 32 32 32 33 34 34 33 34 34 35 36 38 39 40 42 41 42 43 43
30 30 30 29 30 30 30 29 27 26 26 26 26 27 27 27 28 28 29 29 29 29 28 29 29 30 31 31 32 33 33 33 33 34 34 36 38 39 40 41 41 42 43
30 30 31 30 30 29 28 28 28 27 26 26 25 25 26 26 25 26 28 29 28 28 28 28 28 28 29 29 29 30 31 32 32 33 33 34 35 37 39 41 41 41 42
30 30 30 29 28 28 27 27 27 27 27 26 26 25 25 25 25 25 26 28 28 28 28 28 28 28 29 29 29 30 31 31 31 32 32 32 33 35 37 38 38 39 40

GEFSMW_500_meanwind_258.txt.gz
Wind_Speed
40 40 40 41 42 43 44 45 45 46 46 47 48 48 48 48 48 49 49 50 50 49 50 50 50 49 49 48 48 48 47 47 47 46 46 45 44 44 43 42 42 42 41
39 40 41 41 42 43 43 45 46 46 46 47 48 49 50 49 49 49 50 51 51 51 50 51 50 51 51 52 51 50 49 49 49 48 49 48 47 46 46 45 44 43 43
40 40 41 41 42 43 43 44 45 46 46 47 48 49 50 50 50 49 49 50 50 50 50 51 52 52 52 53 53 53 52 51 51 51 50 50 50 49 48 48 47 46 45
40 41 41 42 43 44 45 45 46 46 46 47 48 48 49 49 49 50 49 49 50 50 51 51 52 53 53 53 54 54 54 53 53 54 53 53 52 51 51 50 49 48 48
41 42 43 43 43 44 45 46 47 47 47 48 48 48 48 48 49 49 50 50 50 50 51 51 51 52 53 53 54 55 55 55 55 55 54 54 54 54 54 52 51 50 49
42 43 44 44 44 45 45 46 47 47 47 48 48 49 49 48 49 50 50 50 51 51 51 52 52 52 53 54 55 56 56 56 57 56 56 55 54 54 55 54 53 52 51
43 44 44 44 45 45 45 46 46 47 47 48 48 49 50 50 50 50 50 50 51 51 52 52 53 53 54 54 54 55 56 56 57 57 57 56 55 55 55 55 54 53 52
43 44 44 44 44 45 45 46 46 46 46 47 48 49 49 50 50 50 50 50 51 52 52 53 54 54 54 54 54 55 55 55 56 57 57 57 57 55 54 54 54 54 54
42 43 43 44 44 45 45 45 45 46 46 46 47 47 48 48 49 49 50 50 51 51 52 53 53 54 54 54 54 54 55 55 56 57 58 58 57 56 55 54 54 54 54
42 42 42 43 44 44 44 44 44 45 46 47 47 47 47 47 48 49 49 50 51 51 51 52 53 53 54 54 55 56 56 56 56 56 57 57 57 57 56 56 55 54 54
42 42 42 42 43 44 44 44 43 44 45 46 47 47 47 47 48 48 49 49 50 50 50 51 51 52 53 53 54 55 56 56 56 56 57 56 56 56 56 57 56 55 54
42 42 43 43 43 43 43 43 43 43 44 45 46 47 47 48 48 48 49 49 49 49 50 50 50 50 50 51 52 53 54 54 54 55 56 56 56 57 57 56 56 56 56
42 42 42 42 42 41 41 42 42 43 43 44 46 47 47 48 47 47 48 48 48 48 48 48 49 49 50 50 51 52 52 53 53 53 54 54 55 55 56 56 56 56 56
42 41 41 41 40 41 41 41 41 41 42 43 45 46 46 46 46 46 46 46 47 47 47 47 48 48 48 49 48 49 50 51 51 51 52 52 53 54 54 55 55 56 56
42 41 41 42 41 41 40 40 40 40 41 42 43 43 43 44 44 44 44 44 45 45 45 46 46 46 47 47 46 47 48 48 49 49 50 50 51 52 53 53 54 54 55
42 42 42 42 42 41 40 39 39 40 40 40 41 40 40 41 41 42 42 42 43 43 44 44 45 45 45 45 46 46 46 46 46 47 48 49 50 50 50 51 52 52 52
42 41 41 41 40 40 39 39 39 38 38 37 37 37 37 37 38 39 40 41 41 41 42 43 43 44 44 44 44 45 45 45 45 45 46 47 48 48 49 50 50 50 50
41 40 39 39 39 39 38 38 37 36 35 35 35 35 35 34 35 35 36 37 38 39 40 40 41 41 42 42 41 42 43 43 43 43 44 44 45 46 47 48 49 49 49
40 39 39 38 38 37 36 36 35 34 34 33 33 33 33 33 33 34 34 35 36 36 37 38 39 40 40 41 41 41 41 41 41 41 42 42 43 44 46 47 48 48 48
39 38 37 37 36 35 34 34 33 33 32 32 32 32 32 32 32 32 33 33 33 34 35 36 36 37 37 38 38 39 39 39 39 39 39 40 41 42 43 45 47 47 47
37 36 36 35 35 34 33 32 31 31 31 31 31 31 32 32 32 32 32 32 32 32 33 33 33 34 34 34 35 36 37 37 36 36 37 38 39 39 41 43 45 46 47
35 35 35 34 34 34 33 32 30 30 31 31 31 31 31 31 31 31 31 31 30 31 31 30 30 31 32 32 32 32 34 35 35 35 35 36 37 38 39 41 42 44 45
35 34 34 34 34 33 33 32 31 30 30 31 31 31 31 30 30 30 30 30 29 29 29 29 29 29 30 31 31 31 32 32 33 33 33 34 36 37 37 38 39 42 43
34 34 35 34 34 34 33 32 31 31 30 30 30 30 30 30 30 30 30 30 29 28 28 29 29 28 29 29 30 31 31 31 31 31 32 32 33 34 35 35 37 39 41
35 35 34 34 34 33 32 31 31 30 30 29 29 29 30 29 30 30 29 29 29 28 27 27 28 28 28 28 29 29 29 30 31 31 31 32 32 32 34 35 35 36 38
35 34 34 33 33 32 31 30 29 28 29 29 29 29 29 29 29 29 29 29 28 27 26 26 27 28 28 28 28 28 29 29 30 31 32 31 32 32 32 33 35 36 37

GEFSMW_500_meanwind_264.txt.gz
Wind_Speed
38 39 39 40 40 40 41 42 43 44 45 45 46 48 48 49 50 51 52 52 52 52 52 52 51 51 50 50 49 49 49 49 49 49 49 49 49 48 47 47 46 45 44
38 38 39 40 40 41 42 43 43 43 44 46 47 47 48 49 50 51 52 52 52 53 53 53 52 52 52 52 52 51 50 50 51 51 51 51 51 51 49 49 48 48 47
37 38 38 39 40 41 42 43 44 44 45 46 46 47 49 49 49 50 51 52 53 53 53 53 53 52 53 53 54 54 53 51 51 52 53 53 52 53 52 51 50 50 49
37 38 38 39 40 41 42 44 45 45 45 46 48 47 48 50 50 51 51 51 52 52 52 52 53 53 54 54 54 54 54 53 53 53 54 54 54 55 54 54 52 52 51
37 38 39 40 41 42 43 44 45 46 47 47 48 49 49 50 50 51 51 51 51 52 52 52 53 53 53 53 54 54 54 54 54 54 54 55 55 56 56 56 55 54 53
38 39 40 41 42 43 44 45 46 47 48 48 48 48 49 49 50 50 51 51 51 51 51 52 52 52 53 53 54 55 55 55 55 55 54 54 55 56 56 56 56 56 55
39 40 41 43 44 45 45 45 46 47 48 49 49 48 49 49 49 49 50 51 51 51 51 52 53 54 54 54 54 55 56 56 56 56 55 55 56 56 56 57 57 58 57
39 41 42 43 44 45 46 46 47 47 48 48 48 48 48 48 48 48 49 50 51 51 51 51 52 53 54 55 55 55 56 56 57 56 56 56 56 56 57 57 58 58 58
39 40 41 43 44 45 46 46 46 47 47 47 47 47 47 48 48 48 48 48 49 50 50 51 52 53 54 55 56 56 56 56 56 56 56 56 55 56 56 57 58 59 59
39 40 40 42 43 44 44 44 44 45 45 46 46 46 47 47 47 46 47 48 49 49 50 51 51 51 51 52 54 55 56 56 56 56 56 56 56 56 57 57 58 58 58
39 40 40 41 43 43 43 43 43 43 44 45 45 46 47 47 48 48 47 47 48 49 49 50 50 50 50 51 52 53 54 55 56 57 57 57 56 57 57 58 58 58 58
40 41 42 42 42 43 43 42 43 43 43 44 44 45 46 46 47 48 48 47 47 48 48 49 49 50 50 51 51 52 53 54 55 56 56 57 57 57 57 58 58 59 59
42 42 43 42 42 43 43 43 43 43 43 44 44 44 44 44 45 46 47 47 47 47 46 47 47 48 49 50 51 52 52 53 54 54 54 55 56 57 57 58 58 59 60
42 42 43 43 43 43 43 43 43 43 43 43 43 43 43 43 43 44 45 46 45 45 45 45 45 46 48 48 49 50 50 51 52 52 52 53 54 55 56 57 57 59 60
42 42 42 42 43 43 43 43 43 43 43 42 42 42 42 42 42 43 44 44 44 44 44 44 44 45 46 47 47 48 49 50 50 51 51 51 52 53 54 55 56 57 58
42 42 43 43 43 43 43 42 43 42 42 42 41 41 40 41 41 42 42 42 43 44 44 44 44 44 45 46 47 47 47 48 49 50 51 51 51 52 52 53 54 55 56
42 43 43 43 43 43 43 42 41 41 41 41 40 40 39 40 40 40 40 41 42 42 43 43 44 44 44 45 45 46 47 48 49 50 51 51 51 51 51 52 53 54 55
43 43 43 43 43 42 41 41 40 40 39 39 39 38 39 39 39 39 39 40 40 41 41 42 43 44 44 44 44 44 45 46 47 47 48 49 50 50 50 51 52 53 53
42 42 42 42 42 41 40 39 38 38 38 37 37 38 38 39 38 39 39 39 39 39 40 40 41 42 43 43 43 43 42 43 43 44 45 47 48 49 49 50 51 51 52
42 42 41 41 41 41 40 39 37 37 36 36 36 37 37 37 38 38 38 37 37 37 38 38 38 40 40 41 41 42 41 40 41 42 43 44 46 47 49 49 48 48 48
42 41 40 40 40 39 38 37 36 36 34 33 34 34 35 34 34 34 34 34 35 35 35 35 35 36 37 39 40 39 39 39 39 39 40 41 42 43 45 46 46 45 45
41 40 39 39 38 37 36 35 35 34 32 30 31 32 32 31 31 32 32 32 32 33 33 33 33 34 35 35 35 36 37 38 37 37 37 38 38 39 40 41 42 43 44
40 39 39 38 37 37 36 35 34 33 31 29 29 29 29 29 29 30 31 31 31 31 31 32 32 32 32 32 33 33 35 35 35 35 35 35 36 37 38 39 40 41 41
39 38 38 38 37 37 35 34 33 31 30 28 28 28 28 28 28 29 30 30 30 30 30 30 30 30 30 31 31 32 32 32 32 32 32 33 33 34 35 36 37 39 40
38 38 37 37 37 36 35 33 31 30 28 28 28 28 28 28 28 28 28 29 29 29 30 29 28 28 28 29 30 30 31 31 31 32 32 32 32 33 33 34 35 37 38
37 37 37 36 35 34 33 32 30 29 28 27 28 27 27 27 27 27 26 27 27 28 28 28 27 28 28 28 28 29 30 30 30 31 32 32 32 32 33 34 34 35 36